15min,AgWx,beryljct,423,02AUG2019:00:00:00,61.6,12.95,58.5,58.2,59.2,60.5,57.9,74,79,69,1.257,51.0,52.1,50.2,1.315,1.1,327,92,3.0,-0.00022,-0.00032,71.6,71.7,11,0,.,.,16.34,0.00,0.00
15min,AgWx,beryljct,423,02AUG2019:00:15:00,60.7,12.94,60.9,59.7,58.2,59.7,57.1,74,78,69,1.204,50.1,50.8,49.5,2.192,1.0,0.4,0.1,2.4,-0.00024,-0.00034,71.3,71.7,11,0,.,.,16.35,0.01,0.00
15min,AgWx,beryljct,423,02AUG2019:00:30:00,60.1,12.93,58.2,59.0,59.6,60.7,57.8,69,74,65,1.188,49.4,49.9,48.8,1.14,1.2,0.2,0.2,2.2,-0.00020,-0.00028,71.1,71.7,11,0,.,.,16.35,0.00,0.00
15min,AgWx,beryljct,423,02AUG2019:00:45:00,59.6,12.91,57.3,59.8,58.9,59.8,57.7,70,74,67,1.213,49.3,50.0,48.5,0,0.4,359,3.7,2.0,-0.00029,-0.00045,70.8,71.6,11,0,.,.,16.35,0.00,0.00
15min,AgWx,beryljct,423,02AUG2019:01:00:00,59.0,12.91,60.3,59.8,58.9,59.9,57.5,72,76,68,1.195,49.7,50.2,49.1,1.228,0.4,346,2.0,1.3,-0.00030,-0.00045,70.6,71.6,11,0,.,.,16.35,0.00,0.00
15min,AgWx,beryljct,423,02AUG2019:01:15:00,58.6,12.91,58.2,58.4,57.5,60.0,55.9,75,80,68,1.214,49.6,50.5,48.9,0,1.1,342,3.8,2.4,-0.00022,-0.00032,70.4,71.5,11,0,.,.,16.35,0.00,0.00
15min,AgWx,beryljct,423,02AUG2019:01:30:00,58.3,12.9,61.1,60.6,59.4,60.6,58.2,69,72,66,1.201,49.2,49.8,48.6,3.069,2.0,210,70,4.5,-0.00013,-0.00016,70.1,71.4,11,0,.,.,16.35,0.00,0.00
15min,AgWx,beryljct,423,02AUG2019:01:45:00,58.1,12.89,55.9,55.9,57.8,60.7,55.5,71,76,65,1.162,48.6,49.5,47.8,1.951,1.7,190,48,3.4,-0.00016,-0.00021,69.9,71.4,11,0,.,.,16.35,0.00,0.00
15min,AgWx,beryljct,423,02AUG2019:02:00:00,57.6,12.88,56.3,57.2,57.7,58.8,55.9,70,77,66,1.109,48.1,48.9,47.1,0,0.5,232,1.1,2.2,-0.00029,-0.00043,69.6,71.3,12,0,.,.,16.35,0.00,0.00
15min,AgWx,beryljct,423,02AUG2019:02:15:00,57.2,12.89,56.6,55.8,55.9,57.2,54.1,73,80,69,1.123,47.5,48.3,46.7,2.609,2.2,146,36,6.5,-0.00013,-0.00016,69.4,71.2,11,0,.,.,16.35,0.00,0.00
15min,AgWx,beryljct,423,02AUG2019:02:30:00,56.9,12.88,54.6,54.8,56.2,57.2,54.8,73,79,70,1.150,47.6,48.3,47.3,0.614,1.4,136,0.1,3.3,-0.00019,-0.00026,69.2,71.1,11,0,.,.,16.35,0.00,0.00
15min,AgWx,beryljct,423,02AUG2019:02:45:00,56.5,12.87,53.7,54.0,55.1,55.9,54.0,78,82,75,1.168,48.4,48.7,48.1,4.932,2.4,165,74,5.6,-0.00013,-0.00017,69.0,71.1,11,0,.,.,16.35,0.00,0.00
15min,AgWx,beryljct,423,02AUG2019:03:00:00,56.0,12.86,54.0,54.6,54.5,56.0,53.5,81,84,77,1.174,48.7,49.3,48.3,0,3.1,357,68,8.4,-0.00011,-0.00012,68.8,71.0,11,0,.,.,16.35,0.00,0.00
15min,AgWx,beryljct,423,02AUG2019:03:15:00,55.6,12.85,54.0,53.5,54.3,54.9,53.5,82,84,80,1.178,49.0,49.5,48.6,0.417,0.5,74,9.0,2.4,-0.00028,-0.00042,68.6,70.9,11,0,.,.,16.35,0.00,0.00
15min,AgWx,beryljct,423,02AUG2019:03:30:00,55.1,12.85,53.0,52.8,53.2,53.9,52.6,84,86,83,1.166,48.7,49.1,48.3,0.986,2.2,147,19,6.1,-0.00017,-0.00022,68.4,70.8,11,0,.,.,16.35,0.00,0.00
15min,AgWx,beryljct,423,02AUG2019:03:45:00,54.6,12.86,52.0,52.5,52.8,53.2,52.5,85,86,84,1.143,48.5,49.1,48.1,3.902,3.0,155,9.6,5.3,-0.00013,-0.00016,68.2,70.7,11,0,.,.,16.35,0.00,0.00
15min,AgWx,beryljct,423,02AUG2019:04:00:00,54.1,12.84,54.2,52.9,51.5,52.9,50.7,83,86,80,1.097,46.5,47.9,45.5,1.513,3.2,187,10,4.7,-0.00011,-0.00012,68.0,70.6,11,0,.,.,16.35,0.00,0.00
15min,AgWx,beryljct,423,02AUG2019:04:15:00,54.0,12.84,53.9,54.7,54.0,54.7,53.1,81,82,79,1.152,48.2,48.7,46.9,0.986,2.3,194,5.8,4.4,-0.00015,-0.00019,67.8,70.5,11,0,.,.,16.35,0.00,0.00
15min,AgWx,beryljct,423,02AUG2019:04:30:00,54.0,12.84,52.9,52.4,53.5,55.3,51.9,82,88,77,1.155,48.2,48.7,47.5,2.368,1.7,159,41,5.4,-0.00019,-0.00025,67.6,70.5,11,0,.,.,16.35,0.00,0.00
15min,AgWx,beryljct,423,02AUG2019:04:45:00,53.8,12.84,50.0,50.3,52.1,52.9,50.3,84,87,80,1.084,47.4,48.3,46.6,0.965,0.4,138,0.1,1.3,-0.00028,-0.00042,67.4,70.4,11,0,.,.,16.35,0.00,0.00
15min,AgWx,beryljct,423,02AUG2019:05:00:00,53.3,12.82,51.9,51.4,50.4,51.4,50.1,89,91,85,1.093,47.4,47.9,46.7,2.083,1.5,161,5.7,2.7,0.00005,0.00008,67.2,70.3,11,0,.,.,16.35,0.00,0.00
15min,AgWx,beryljct,423,02AUG2019:05:15:00,53.0,12.84,54.7,54.1,52.5,54.2,51.0,80,85,74,1.050,46.3,46.9,45.7,5.108,3.1,175,8.8,5.1,0.00016,0.00028,67.0,70.2,11,0,.,.,16.35,0.00,0.00
15min,AgWx,beryljct,423,02AUG2019:05:30:00,53.2,12.83,52.5,52.5,54.2,55.8,52.5,75,82,70,1.103,46.3,47.2,45.8,3.727,2.4,190,26,4.9,0.00017,0.00029,66.9,70.1,11,1,.,.,16.35,0.00,0.00
15min,AgWx,beryljct,423,02AUG2019:05:45:00,53.1,12.83,49.4,49.4,50.9,52.6,49.4,83,85,82,1.019,46.1,48.2,44.9,5.327,4.8,336,11,6.8,0.00021,0.00035,66.7,70.0,11,5,.,.,16.35,0.00,0.00
15min,AgWx,beryljct,423,02AUG2019:06:00:00,52.9,12.84,52.8,52.3,50.5,52.3,49.4,88,89,85,1.157,46.9,48.6,45.2,6.401,5.7,317,9.0,6.8,0.00029,0.00042,66.5,69.9,11,27,.,.,16.35,0.00,0.00
15min,AgWx,beryljct,423,02AUG2019:06:15:00,53.4,12.85,54.7,54.4,53.5,54.5,52.3,86,87,85,1.231,49.4,50.2,48.5,5.612,5.9,306,5.1,7.3,0.00049,0.00065,66.4,69.8,11,58,.,.,16.35,0.00,0.00
15min,AgWx,beryljct,423,02AUG2019:06:30:00,54.7,12.84,55.8,55.6,55.0,55.6,54.4,85,85,84,1.266,50.6,50.9,50.1,4.647,5.4,315,8.7,6.6,0.00065,0.00083,66.2,69.7,11,97,.,.,16.34,0.00,0.00
15min,AgWx,beryljct,423,02AUG2019:06:45:00,56.4,12.87,57.6,57.4,56.4,57.4,55.6,83,84,81,1.301,51.3,51.7,50.9,5.152,5.3,333,5.8,6.6,0.00086,0.00107,66.1,69.6,11,138,.,.,16.35,0.00,0.00
15min,AgWx,beryljct,423,02AUG2019:07:00:00,58.4,12.86,59.3,59.4,58.7,59.4,57.4,78,81,75,1.331,51.7,52.2,51.1,4.165,3.9,350,10,5.5,0.00113,0.00136,65.9,69.5,11,183,.,.,16.35,0.00,0.00
15min,AgWx,beryljct,423,02AUG2019:07:15:00,60.6,12.9,61.1,61.0,60.2,61.0,59.4,75,77,73,1.339,52.4,52.9,51.9,4.384,4.4,333,9.8,5.5,0.00144,0.00173,65.8,69.5,11,230,.,.,16.35,0.00,0.00
15min,AgWx,beryljct,423,02AUG2019:07:30:00,62.9,12.92,63.0,63.3,62.2,63.3,61.0,71,75,66,1.391,52.7,53.5,51.3,3.179,3.8,334,5.7,5.5,0.00176,0.00209,65.7,69.4,11,278,.,.,16.34,0.00,0.00
15min,AgWx,beryljct,423,02AUG2019:07:45:00,65.2,12.97,65.1,65.3,64.2,65.3,63.2,65,70,60,1.309,52.0,53.3,50.8,4.099,4.0,341,7.2,5.3,0.00216,0.00258,65.6,69.3,11,328,.,.,16.34,0.00,0.00
15min,AgWx,beryljct,423,02AUG2019:08:00:00,67.4,13.09,66.6,66.8,66.0,66.8,65.3,61,66,57,1.288,52.2,54.1,51.0,4.165,3.9,339,7.8,5.3,0.00247,0.00294,65.6,69.2,11,366,.,.,16.34,0.00,0.00
15min,AgWx,beryljct,423,02AUG2019:08:15:00,69.5,13.28,68.5,68.2,67.8,68.4,66.8,56,59,52,1.290,51.4,52.8,50.0,3.113,4.2,346,9.6,5.2,0.00296,0.00353,65.6,69.1,11,430,.,.,16.33,0.00,0.00
15min,AgWx,beryljct,423,02AUG2019:08:30:00,71.6,13.57,69.0,69.6,68.9,70.0,68.1,53,56,49,1.214,51.1,52.4,49.7,3.551,3.6,354,12,5.0,0.00330,0.00387,65.6,69.0,11,480,.,.,16.33,0.00,0.00
15min,AgWx,beryljct,423,02AUG2019:08:45:00,73.6,13.82,71.0,71.5,70.4,71.5,69.5,49,54,45,1.195,50.3,52.7,49.3,4.319,3.4,355,11,5.1,0.00367,0.00429,65.7,68.9,11,530,.,.,16.33,0.00,0.00
15min,AgWx,beryljct,423,02AUG2019:09:00:00,75.6,14.06,74.8,73.2,72.3,73.3,71.3,45,49,43,1.328,49.8,53.0,48.4,3.42,3.1,5.8,16,4.6,0.00406,0.00471,65.9,68.8,11,577,.,.,16.32,0.00,0.00
15min,AgWx,beryljct,423,02AUG2019:09:15:00,77.7,13.97,73.9,74.7,74.0,75.1,73.3,44,48,42,1.228,50.8,53.3,49.2,3.683,3.2,25,12,4.5,0.00444,0.00514,66.0,68.8,11,623,.,.,16.32,0.00,0.00
15min,AgWx,beryljct,423,02AUG2019:09:30:00,79.8,13.97,76.8,76.8,75.9,76.9,74.5,41,45,38,1.377,50.5,53.1,48.9,3.749,3.4,23,12,4.8,0.00486,0.00564,66.3,68.7,11,668,.,.,16.32,0.00,0.00
15min,AgWx,beryljct,423,02AUG2019:09:45:00,81.9,13.9,77.4,78.2,77.6,78.2,76.5,38,43,35,1.155,50.1,52.8,48.4,2.236,2.6,5.7,24,4.5,0.00512,0.00585,66.5,68.6,11,706,.,.,16.31,0.00,0.00
15min,AgWx,beryljct,423,02AUG2019:10:00:00,84.2,13.87,79.4,79.6,79.6,80.2,78.2,36,40,33,1.311,50.3,53.5,47.4,3.179,1.9,350,15,3.5,0.00547,0.00614,66.9,68.6,11,754,.,.,16.31,0.00,0.00
15min,AgWx,beryljct,423,02AUG2019:10:15:00,86.3,13.84,80.9,82.2,80.7,82.3,79.5,35,38,33,1.345,50.4,52.7,48.5,0,1.1,337,10,3.4,0.00564,0.00620,67.2,68.5,11,785,.,.,16.30,0.00,0.00
15min,AgWx,beryljct,423,02AUG2019:10:30:00,88.3,13.8,85.3,82.3,81.9,82.6,81.4,32,38,28,1.223,49.2,54.0,45.9,0.921,1.3,12,71,3.3,0.00593,0.00654,67.7,68.5,11,817,.,.,16.30,0.00,0.00
15min,AgWx,beryljct,423,02AUG2019:10:45:00,89.7,13.77,82.2,83.4,82.8,83.7,82.3,30,35,27,1.347,48.5,52.6,45.3,3.047,2.4,118,15,4.0,0.00634,0.00717,68.1,68.5,11,850,.,.,16.30,0.00,0.00
15min,AgWx,beryljct,423,02AUG2019:11:00:00,90.7,13.81,83.6,83.8,83.7,84.7,83.0,31,38,28,1.092,50.0,55.7,46.9,2.236,1.9,130,7.8,3.3,0.00654,0.00731,68.7,68.4,11,880,.,.,16.30,0.00,0.00
15min,AgWx,beryljct,423,02AUG2019:11:15:00,91.6,13.35,84.8,85.0,84.5,85.2,83.7,28,33,25,1.283,47.4,52.2,44.4,2.631,1.9,77,19,4.1,0.00678,0.00759,69.2,68.4,11,912,.,.,16.30,0.00,0.00
15min,AgWx,beryljct,423,02AUG2019:11:30:00,92.4,13.36,84.8,85.1,84.9,85.3,84.6,28,32,24,1.157,48.3,51.9,43.5,1.71,2.8,97,20,4.9,0.00711,0.00809,69.8,68.5,11,939,.,.,16.30,0.00,0.00
15min,AgWx,beryljct,423,02AUG2019:11:45:00,93.4,13.31,84.7,85.6,86.3,87.2,85.1,28,32,25,1.158,49.2,53.7,46.3,1.359,2.1,237,87,5.5,0.00748,0.00836,70.4,68.5,11,996,.,.,16.30,0.00,0.00
15min,AgWx,beryljct,423,02AUG2019:12:00:00,93.8,13.32,85.8,86.1,85.8,87.3,84.7,31,35,26,1.398,51.3,54.8,47.6,8.51,4.7,85,51,10.4,0.00676,0.00800,71.1,68.5,11,838,.,.,16.30,0.00,0.00
15min,AgWx,beryljct,423,02AUG2019:12:15:00,93.5,13.29,85.2,85.8,86.4,86.9,85.8,32,36,28,1.271,53.1,56.3,49.4,6.511,7.5,135,12,10.7,0.00783,0.00956,71.7,68.6,11,948,.,.,16.30,0.00,0.00
15min,AgWx,beryljct,423,02AUG2019:12:30:00,93.0,13.3,85.7,85.6,86.3,87.7,84.8,32,37,26,1.296,52.6,56.9,48.4,8.22,7.2,145,15,13.1,0.00672,0.00833,72.4,68.6,11,778,.,.,16.31,0.00,0.00
15min,AgWx,beryljct,423,02AUG2019:12:45:00,91.2,13.34,85.2,85.9,85.2,86.3,83.5,34,39,29,1.324,53.5,56.9,49.6,11.73,7.1,139,29,11.7,0.00394,0.00531,73.0,68.7,11,333,.,.,16.31,0.01,0.00
15min,AgWx,beryljct,423,02AUG2019:13:00:00,90.8,13.3,90.5,89.1,87.2,89.1,85.7,31,34,25,1.400,52.5,55.3,48.7,8.72,7.7,183,23,14.1,0.00786,0.00964,73.5,68.8,11,951,.,.,16.31,0.00,0.00
15min,AgWx,beryljct,423,02AUG2019:13:15:00,92.4,13.31,89.3,88.7,88.8,89.3,88.4,29,33,25,1.135,52.2,55.6,47.9,4.867,8.9,172,30,15.7,0.00913,0.01124,74.0,68.9,11,1080,.,.,16.31,0.00,0.00
15min,AgWx,beryljct,423,02AUG2019:13:30:00,92.8,13.34,85.5,86.0,87.4,88.9,85.9,28,33,24,1.279,50.4,53.8,47.1,6.62,7.1,152,13,17.0,0.00515,0.00673,74.5,69.1,11,500,.,.,16.31,0.00,0.00
15min,AgWx,beryljct,423,02AUG2019:13:45:00,92.5,13.33,86.3,87.1,87.7,88.9,86.0,31,35,28,1.501,52.9,56.5,50.6,4.494,9.8,161,21,15.4,0.00761,0.00968,74.9,69.2,11,869,.,.,16.31,0.00,0.00
15min,AgWx,beryljct,423,02AUG2019:14:00:00,91.6,13.36,87.1,88.0,86.4,88.2,84.9,31,35,26,1.402,52.5,56.0,47.9,4.275,7.6,172,21,15.6,0.00449,0.00602,75.3,69.4,11,413,.,.,16.32,0.01,0.00
15min,AgWx,beryljct,423,02AUG2019:14:15:00,91.2,13.33,86.0,87.5,87.5,88.4,86.8,30,33,26,1.218,51.8,55.8,48.1,5.217,6.5,145,20,13.4,0.00456,0.00597,75.7,69.5,11,443,.,.,16.31,0.00,0.00
15min,AgWx,beryljct,423,02AUG2019:14:30:00,91.4,13.31,85.9,85.4,87.5,88.9,85.3,31,39,26,1.583,53.5,57.8,48.9,7.147,7.0,212,46,12.5,0.00639,0.00796,76.0,69.7,11,759,.,.,16.31,0.00,0.00
15min,AgWx,beryljct,423,02AUG2019:14:45:00,91.7,13.39,88.4,88.2,87.1,88.2,85.4,33,42,25,1.446,54.2,61.8,47.7,10.72,7.3,237,25,14.2,0.00689,0.00851,76.3,69.8,11,821,.,.,16.31,0.00,0.00
15min,AgWx,beryljct,423,02AUG2019:15:00:00,92.5,13.27,88.5,89.4,88.6,89.4,87.7,29,36,23,1.331,52.4,57.8,46.8,11.93,7.9,208,29,15.1,0.00738,0.00921,76.5,70.0,11,859,.,.,16.31,0.00,0.00
15min,AgWx,beryljct,423,02AUG2019:15:15:00,93.1,13.3,89.3,88.6,88.5,89.3,87.7,29,37,23,1.099,52.0,58.2,46.4,9.45,10.0,207,18,14.5,0.00739,0.00953,76.8,70.2,11,821,.,.,16.31,0.00,0.00
15min,AgWx,beryljct,423,02AUG2019:15:30:00,93.5,13.23,87.3,89.2,88.6,89.3,87.9,27,34,22,1.194,50.4,56.2,45.0,13.04,7.2,238,30,16.7,0.00638,0.00808,77.2,70.4,11,732,.,.,16.32,0.00,0.00
15min,AgWx,beryljct,423,02AUG2019:15:45:00,93.7,13.22,88.2,88.9,88.0,89.0,86.9,29,37,22,1.380,52.0,59.3,45.0,5.415,7.4,242,27,14.1,0.00643,0.00812,77.4,70.5,11,741,.,.,16.31,0.00,0.00
15min,AgWx,beryljct,423,02AUG2019:16:00:00,93.9,13.24,85.6,87.2,88.2,89.4,87.1,30,34,25,1.444,52.6,55.8,48.8,4.362,7.9,216,25,12.5,0.00620,0.00795,77.7,70.7,11,699,.,.,16.31,0.00,0.00
15min,AgWx,beryljct,423,02AUG2019:16:15:00,93.8,13.24,89.3,88.2,87.7,88.5,86.9,30,36,26,1.196,52.4,57.3,48.4,5.239,6.8,236,19,11.7,0.00562,0.00716,78.1,70.8,11,646,.,.,16.31,0.00,0.00
15min,AgWx,beryljct,423,02AUG2019:16:30:00,93.5,13.22,88.4,87.5,87.3,88.6,86.4,30,36,24,1.257,51.9,56.6,47.5,11.86,9.2,241,17,14.4,0.00570,0.00757,78.3,71.0,11,612,.,.,16.32,0.01,0.00
15min,AgWx,beryljct,423,02AUG2019:16:45:00,93.2,13.26,86.2,88.3,88.4,89.6,87.4,26,32,20,1.214,48.6,54.0,43.2,7.388,9.0,201,14,15.1,0.00549,0.00746,78.5,71.2,11,563,.,.,16.31,0.00,0.00
15min,AgWx,beryljct,423,02AUG2019:17:00:00,92.9,13.23,88.4,86.3,87.4,89.0,85.8,27,33,21,1.100,49.1,54.3,44.4,6.818,7.1,240,29,12.2,0.00429,0.00583,78.7,71.3,11,456,.,.,16.31,0.00,0.00
15min,AgWx,beryljct,423,02AUG2019:17:15:00,92.4,13.28,88.6,88.6,87.6,89.0,86.1,28,35,21,1.087,50.1,55.5,43.9,14.71,6.6,220,34,14.7,0.00420,0.00563,78.9,71.6,11,460,.,.,16.31,0.00,0.00
15min,AgWx,beryljct,423,02AUG2019:17:30:00,92.0,13.3,86.3,87.7,87.5,88.7,86.6,27,32,23,1.215,49.4,54.1,45.7,7.673,8.8,214,22,15.1,0.00433,0.00614,79.0,71.7,11,414,.,.,16.31,0.00,0.00
15min,AgWx,beryljct,423,02AUG2019:17:45:00,91.5,13.27,86.2,86.4,87.1,87.9,86.4,28,31,25,1.212,49.8,52.3,47.2,9.71,9.1,207,14,13.9,0.00400,0.00580,79.1,71.8,11,367,.,.,16.31,0.00,0.00
15min,AgWx,beryljct,423,02AUG2019:18:00:00,90.8,13.3,85.7,85.6,86.4,87.0,85.6,29,35,25,1.450,50.3,54.6,46.3,3.244,7.4,209,9.8,12.9,0.00330,0.00479,79.1,72.0,11,317,.,.,16.31,0.00,0.00
15min,AgWx,beryljct,423,02AUG2019:18:15:00,90.2,13.24,86.1,86.0,86.0,86.6,85.4,29,36,27,1.179,50.4,55.2,48.2,11.93,8.6,210,7.9,14.0,0.00322,0.00483,79.1,72.2,11,283,.,.,16.31,0.00,0.00
15min,AgWx,beryljct,423,02AUG2019:18:30:00,89.6,13.19,86.0,85.9,85.9,87.1,85.0,28,31,24,1.218,49.2,51.2,46.2,7.782,8.7,210,14,13.0,0.00302,0.00468,79.1,72.3,11,243,.,.,16.31,0.00,0.00
15min,AgWx,beryljct,423,02AUG2019:18:45:00,88.9,13.15,84.7,84.9,85.2,86.2,83.7,30,35,27,1.185,50.1,53.4,48.3,7.782,7.0,207,10,10.0,0.00231,0.00363,79.0,72.5,11,199,.,.,16.31,0.00,0.00
15min,AgWx,beryljct,423,02AUG2019:19:00:00,88.2,13.13,84.9,85.0,85.2,86.0,84.6,28,30,26,1.127,48.6,50.1,47.4,8.07,7.9,198,7.2,10.6,0.00148,0.00203,78.9,72.6,11,150,.,.,16.31,0.00,0.00
15min,AgWx,beryljct,423,02AUG2019:19:15:00,87.1,13.12,81.0,82.3,83.4,85.0,82.3,31,33,28,1.203,49.4,50.9,47.8,5.765,5.8,207,8.8,9.1,0.00100,0.00144,78.7,72.7,11,93,.,.,16.31,0.00,0.00
15min,AgWx,beryljct,423,02AUG2019:19:30:00,85.4,13.1,81.8,81.4,81.6,82.4,80.6,32,36,30,1.158,49.1,51.3,47.9,6.467,6.0,220,7.5,8.2,0.00085,0.00123,78.6,72.8,11,52,.,.,16.32,0.01,0.00
15min,AgWx,beryljct,423,02AUG2019:19:45:00,83.8,13.07,80.9,80.5,80.8,81.5,80.3,33,33,31,1.162,48.7,49.1,48.2,6.072,5.8,220,3.2,6.9,0.00073,0.00107,78.4,72.9,11,23,.,.,16.32,0.00,0.00
15min,AgWx,beryljct,423,02AUG2019:20:00:00,82.2,13.07,81.1,80.5,80.3,80.7,79.9,33,34,31,1.136,48.2,48.9,47.4,5.459,5.4,210,4.4,6.8,0.00063,0.00094,78.2,73.0,11,8,.,.,16.32,0.01,0.00
15min,AgWx,beryljct,423,02AUG2019:20:15:00,81.2,13.05,80.2,80.2,80.2,80.5,79.8,32,33,31,1.107,47.7,48.3,46.7,5.502,5.3,207,3.6,5.9,0.00058,0.00088,78.0,73.1,11,0,.,.,16.32,0.00,0.00
15min,AgWx,beryljct,423,02AUG2019:20:30:00,80.1,13.05,80.8,80.4,79.7,80.4,79.2,32,33,30,1.050,47.1,47.8,45.9,4.801,5.1,204,2.4,5.9,0.00056,0.00085,77.8,73.2,11,0,.,.,16.32,0.00,0.00
15min,AgWx,beryljct,423,02AUG2019:20:45:00,79.0,13.04,77.0,76.1,78.2,80.5,75.5,35,41,30,1.168,48.2,50.7,46.0,4.801,4.7,212,4.3,5.4,0.00045,0.00070,77.6,73.2,11,0,.,.,16.32,0.00,0.00
15min,AgWx,beryljct,423,02AUG2019:21:00:00,77.9,13.02,77.3,78.0,77.1,78.0,76.2,36,38,34,1.141,48.3,49.1,47.4,4.976,5.2,213,2.2,5.9,0.00050,0.00075,77.3,73.3,11,0,.,.,16.33,0.00,0.00
15min,AgWx,beryljct,423,02AUG2019:21:15:00,77.1,13.02,75.9,76.4,77.3,78.2,76.4,36,38,34,1.175,48.3,49.1,47.2,4.867,5.0,216,2.1,5.7,0.00048,0.00073,77.1,73.4,11,0,.,.,16.33,0.00,0.00
15min,AgWx,beryljct,423,02AUG2019:21:30:00,76.3,13,72.8,74.2,75.5,76.4,74.2,40,43,38,1.244,49.4,50.4,48.6,2.938,4.4,213,4.3,5.5,0.00035,0.00055,76.8,73.4,11,0,.,.,16.33,0.00,0.00
15min,AgWx,beryljct,423,02AUG2019:21:45:00,75.1,13.01,72.8,72.9,73.0,74.1,71.5,45,49,42,1.212,50.2,51.7,49.1,2.674,2.9,184,9.5,3.8,0.00010,0.00020,76.6,73.4,11,0,.,.,16.33,0.00,0.00
15min,AgWx,beryljct,423,02AUG2019:22:00:00,73.9,12.98,70.2,71.4,72.4,73.3,71.4,45,48,43,1.249,49.8,50.5,49.2,2.433,2.7,176,2.5,3.1,0.00007,0.00016,76.3,73.4,12,0,.,.,16.33,0.00,0.00
15min,AgWx,beryljct,423,02AUG2019:22:15:00,72.7,12.97,72.5,72.2,70.5,72.2,68.7,48,53,42,1.132,49.6,51.1,47.6,4.823,4.3,163,6.3,5.8,0.00024,0.00038,76.0,73.5,11,0,.,.,16.33,0.00,0.00
15min,AgWx,beryljct,423,02AUG2019:22:30:00,72.5,12.97,75.2,75.2,73.8,75.3,72.3,39,42,36,1.105,47.5,48.2,46.7,6.292,5.9,165,4.9,6.9,0.00051,0.00075,75.8,73.4,11,0,.,.,16.34,0.00,0.00
15min,AgWx,beryljct,423,02AUG2019:22:45:00,72.7,12.95,70.3,71.0,72.8,75.2,70.8,41,44,37,1.118,47.6,48.5,46.9,5.13,5.7,166,6.6,6.8,0.00048,0.00070,75.5,73.4,12,0,.,.,16.33,0.00,0.00
15min,AgWx,beryljct,423,02AUG2019:23:00:00,72.2,12.95,69.9,68.4,70.1,71.3,68.2,45,53,41,1.233,48.0,50.3,46.7,10.19,5.6,167,12,10.5,0.00038,0.00057,75.3,73.4,11,0,.,.,16.34,0.00,0.00
15min,AgWx,beryljct,423,02AUG2019:23:15:00,71.4,12.95,68.1,68.3,68.6,69.8,67.8,51,52,48,1.197,49.5,50.1,48.8,3.793,4.5,193,7.2,9.6,0.00023,0.00036,75.0,73.4,11,0,.,.,16.34,0.00,0.00
15min,AgWx,beryljct,423,02AUG2019:23:30:00,70.8,12.92,72.8,72.0,70.9,72.2,68.3,45,51,42,1.191,48.6,49.5,47.7,3.88,3.3,185,8.6,4.9,0.00015,0.00026,74.8,73.4,11,0,.,.,16.34,0.00,0.00
15min,AgWx,bigpiney,439,02AUG2019:00:00:00,58.6,12.75,55.3,55.3,55.2,55.5,55.0,71,72,69,1.038,45.9,46.2,45.6,10.43,10.4,318,9.2,14.3,0.00028,0.00035,55.6,52.0,53,0,0,0.0,4.10,0.00,0.00
15min,AgWx,bigpiney,439,02AUG2019:00:15:00,58.4,12.73,55.6,55.2,55.3,55.6,55.1,69,70,69,1.022,45.4,45.6,45.2,10.02,10.6,318,8.5,16.1,0.00030,0.00037,55.5,52.0,53,0,0,0.0,4.10,0.00,0.00
15min,AgWx,bigpiney,439,02AUG2019:00:30:00,58.2,12.72,54.7,54.7,55.2,55.4,54.7,68,69,68,1.004,45.0,45.3,44.7,7.475,9.0,314,13,13.4,0.00028,0.00035,55.5,52.0,53,0,0,0.0,4.10,0.00,0.00
15min,AgWx,bigpiney,439,02AUG2019:00:45:00,57.9,12.72,54.0,53.8,54.2,54.8,53.8,69,70,69,0.979,44.4,44.8,44.0,5.59,6.0,286,11,8.8,0.00019,0.00025,55.4,52.0,53,0,0,0.0,4.10,0.00,0.00
15min,AgWx,bigpiney,439,02AUG2019:01:00:00,57.5,12.71,53.9,53.5,54.0,54.4,53.5,68,69,67,0.954,43.7,44.1,43.3,4.012,4.7,269,18,8.2,0.00015,0.00021,55.4,52.0,53,0,0,0.0,4.10,0.00,0.00
15min,AgWx,bigpiney,439,02AUG2019:01:15:00,56.9,12.69,50.8,50.2,51.3,53.5,50.0,72,75,68,0.926,42.8,43.3,42.3,3.946,4.2,222,11,4.8,0.00010,0.00014,55.4,52.1,53,0,0,0.0,4.10,0.00,0.00
15min,AgWx,bigpiney,439,02AUG2019:01:30:00,55.9,12.7,48.4,48.8,50.3,51.0,48.8,74,76,72,0.897,42.3,42.6,41.7,5.108,4.7,226,9.0,5.5,0.00010,0.00014,55.3,52.0,53,0,0,0.0,4.10,0.00,0.00
15min,AgWx,bigpiney,439,02AUG2019:01:45:00,54.9,12.69,48.6,48.7,49.0,49.3,48.7,76,77,75,0.895,41.9,42.0,41.7,5.086,5.6,230,5.1,6.9,0.00010,0.00014,55.2,52.0,53,0,0,0.0,4.10,0.00,0.00
15min,AgWx,bigpiney,439,02AUG2019:02:00:00,54.1,12.68,49.0,48.5,48.4,48.7,48.2,77,78,77,0.893,41.7,41.8,41.3,4.56,4.4,230,6.8,5.3,0.00006,0.00009,55.2,52.1,53,0,0,0.0,4.10,0.00,0.00
15min,AgWx,bigpiney,439,02AUG2019:02:15:00,53.3,12.67,48.9,48.1,48.1,48.5,47.4,77,79,76,0.877,41.3,41.7,40.8,0,1.9,260,19,4.5,-0.00002,-0.00002,55.1,52.1,53,0,0,0.0,4.10,0.00,0.00
15min,AgWx,bigpiney,439,02AUG2019:02:30:00,52.4,12.66,47.6,47.9,48.3,49.0,47.2,76,79,74,0.857,41.1,41.5,40.3,3.223,1.9,207,11,3.7,-0.00003,-0.00002,55.1,52.0,53,0,0,0.0,4.10,0.00,0.00
15min,AgWx,bigpiney,439,02AUG2019:02:45:00,51.7,12.66,43.8,43.4,45.6,47.9,43.3,80,85,76,0.814,39.8,41.1,38.8,4.494,3.8,211,7.4,5.0,0.00003,0.00005,55.0,52.1,53,0,0,0.0,4.10,0.00,0.00
15min,AgWx,bigpiney,439,02AUG2019:03:00:00,50.7,12.65,47.9,46.5,44.6,46.5,43.4,84,86,80,0.858,40.0,40.8,39.3,3.244,3.3,236,5.9,4.6,-0.00001,0.00000,54.9,52.1,53,0,0,0.0,4.10,0.00,0.00
15min,AgWx,bigpiney,439,02AUG2019:03:15:00,50.0,12.64,43.8,44.3,45.3,47.2,44.2,80,83,77,0.801,39.4,40.8,38.1,2.433,3.2,209,15,5.5,0.00001,0.00003,54.9,52.0,53,0,0,0.0,4.10,0.00,0.00
15min,AgWx,bigpiney,439,02AUG2019:03:30:00,49.3,12.63,43.4,42.6,42.5,44.2,41.8,85,87,81,0.806,38.3,39.0,37.8,1.929,2.8,217,24,4.0,-0.00002,-0.00002,54.8,52.1,53,0,0,0.0,4.10,0.00,0.00
15min,AgWx,bigpiney,439,02AUG2019:03:45:00,48.5,12.61,43.0,42.6,42.4,42.8,42.1,86,87,85,0.797,38.5,39.1,38.0,3.157,3.6,217,12,5.2,-0.00001,-0.00000,54.7,52.1,53,0,0,0.0,4.10,0.00,0.00
15min,AgWx,bigpiney,439,02AUG2019:04:00:00,47.9,12.6,42.9,42.7,43.0,43.3,42.6,85,86,84,0.795,38.8,39.3,38.3,2.368,2.4,259,11,3.4,-0.00003,-0.00004,54.7,52.1,53,0,0,0.0,4.10,0.00,0.00
15min,AgWx,bigpiney,439,02AUG2019:04:15:00,47.4,12.6,43.2,43.5,43.0,43.8,42.5,85,87,83,0.802,38.8,40.2,38.0,2.718,2.6,256,12,4.4,-0.00003,-0.00003,54.6,52.1,53,0,0,0.0,4.10,0.00,0.00
15min,AgWx,bigpiney,439,02AUG2019:04:30:00,46.9,12.58,45.0,43.4,43.1,43.9,42.5,85,88,83,0.828,38.9,40.4,38.1,1.228,2.2,243,10,2.9,-0.00004,-0.00004,54.5,52.1,53,0,0,0.0,4.10,0.00,0.00
15min,AgWx,bigpiney,439,02AUG2019:04:45:00,46.5,12.57,42.5,41.2,42.1,44.5,40.4,85,88,82,0.775,38.0,41.0,36.0,0,0.9,83,39,2.3,-0.00009,-0.00012,54.5,52.0,53,0,0,0.0,4.10,0.00,0.00
15min,AgWx,bigpiney,439,02AUG2019:05:00:00,46.0,12.57,42.1,41.7,42.4,43.6,41.3,85,88,82,0.761,38.1,39.2,37.0,3.464,1.8,299,39,3.5,-0.00005,-0.00006,54.4,52.1,53,0,0,0.0,4.10,0.00,0.00
15min,AgWx,bigpiney,439,02AUG2019:05:15:00,45.5,12.57,42.8,41.9,41.8,42.5,40.5,84,86,82,0.763,37.3,38.0,35.8,1.491,1.7,260,21,3.4,-0.00005,-0.00005,54.3,52.0,53,3,0,0.0,4.10,0.00,0.00
15min,AgWx,bigpiney,439,02AUG2019:05:30:00,44.9,12.57,42.4,42.7,40.7,42.8,38.8,86,90,82,0.792,36.9,39.4,34.8,2.433,2.5,224,12,4.2,-0.00032,-0.00029,54.2,52.0,53,17,0,0.0,4.10,0.00,0.00
15min,AgWx,bigpiney,439,02AUG2019:05:45:00,44.5,12.59,41.3,40.2,39.8,42.6,39.1,87,90,82,0.759,36.3,38.3,35.2,5.02,4.2,213,6.6,5.1,-0.00013,-0.00007,54.2,52.0,53,46,0,0.0,4.10,0.00,0.00
15min,AgWx,bigpiney,439,02AUG2019:06:00:00,44.6,12.61,42.9,42.2,41.1,42.2,40.4,90,90,89,0.815,38.3,39.3,37.6,2.828,3.5,220,11,4.9,-0.00001,0.00004,54.1,52.1,53,78,0,0.0,4.10,0.00,0.00
15min,AgWx,bigpiney,439,02AUG2019:06:15:00,45.4,12.6,46.0,45.3,43.8,45.3,42.3,88,89,87,0.898,40.6,41.8,39.3,1.271,1.4,241,8.8,2.8,0.00014,0.00017,54.0,52.0,53,115,0,0.0,4.10,0.00,0.00
15min,AgWx,bigpiney,439,02AUG2019:06:30:00,46.9,12.63,49.5,48.8,47.3,48.9,45.3,84,87,76,0.893,42.6,43.6,41.6,2.609,1.3,286,38,3.0,0.00038,0.00044,53.9,52.1,53,154,0,0.0,4.10,0.00,0.00
15min,AgWx,bigpiney,439,02AUG2019:06:45:00,49.0,12.65,51.7,50.7,49.6,50.7,48.9,76,78,73,0.936,42.3,43.2,41.8,0.614,2.3,315,14,3.4,0.00069,0.00082,53.8,52.0,53,198,0,0.0,4.10,0.00,0.00
15min,AgWx,bigpiney,439,02AUG2019:07:00:00,51.3,12.67,52.9,52.6,51.7,52.7,50.8,72,76,69,0.937,43.0,43.7,42.4,0,1.1,333,31,2.4,0.00095,0.00107,53.7,52.0,53,245,0,0.0,4.10,0.00,0.00
15min,AgWx,bigpiney,439,02AUG2019:07:15:00,53.6,12.72,53.5,53.4,53.2,53.9,52.6,69,71,67,0.951,43.4,44.7,42.5,1.776,1.1,107,18,2.7,0.00128,0.00142,53.7,52.0,53,294,0,0.0,4.10,0.00,0.00
15min,AgWx,bigpiney,439,02AUG2019:07:30:00,55.7,12.93,55.1,54.6,54.1,54.7,53.4,69,71,68,1.018,44.4,45.2,43.0,2.411,1.4,106,25,3.3,0.00161,0.00179,53.6,52.0,53,343,0,0.0,4.10,0.00,0.00
15min,AgWx,bigpiney,439,02AUG2019:07:45:00,57.3,13.26,56.3,55.7,55.3,55.9,54.7,67,70,65,0.978,44.5,45.6,43.8,1.732,2.9,100,18,4.8,0.00197,0.00226,53.5,52.0,53,392,0,0.0,4.10,0.00,0.00
15min,AgWx,bigpiney,439,02AUG2019:08:00:00,58.7,13.5,57.0,56.4,56.3,56.7,55.8,67,69,65,1.032,45.4,46.4,44.2,1.6,2.5,118,27,4.7,0.00229,0.00258,53.4,52.0,53,440,0,0.0,4.10,0.00,0.00
15min,AgWx,bigpiney,439,02AUG2019:08:15:00,60.1,13.66,58.0,58.3,57.3,58.3,56.5,65,69,63,1.084,45.8,47.6,44.9,2.389,1.6,130,26,3.4,0.00260,0.00287,53.4,52.0,53,486,0,0.0,4.10,0.00,0.00
15min,AgWx,bigpiney,439,02AUG2019:08:30:00,61.9,14.29,60.4,60.5,59.3,60.5,58.2,64,66,61,1.135,47.0,48.3,45.6,0.965,1.4,115,38,4.4,0.00297,0.00326,53.3,52.0,53,532,0,0.0,4.10,0.00,0.00